Starlink 32030

operational
NORAD ID: 61513 Int'l Des: 2024-183 Owner: SPXS Country: US Constellation: starlink
LEOCIRCULAR

关于 Starlink 32030

正在加载描述...

实时位置

正在加载3D地球...

即将过境

高度历史

Altitude vs Time

uPlot chart will show altitude changes over time

两行轨道根数

1 61513U 24183E 25259.18780551 -.00007435 00000-0 -23882-3 0 9999
2 61513 53.1558 233.1220 0003297 86.7345 273.4033 15.30233439 52936
Epoch: Sep 16, 2025 • Age: 8 hours

当前状态

高度 478.9 km
速度 7.63 km/s
星下点 50.76°N, 111.59°E
发射日期 Oct 15, 2024
运行时间 0.9 years
类型 internet

技术详情

分类 Payload
质量 730.00 kg
干质量 700.00 kg
总质量 730.00 kg
长度 0.30 m
直径 4.10 m
跨度 29.00 m
形状 Box + pan
制造商 SPXS
平台类型 Starlink V2M
阶段状态 In Orbit
所有者/国家 SPXS/US

大型星座

Loading constellations...